Preview of NWS' New Version of Forecast
This preview is not operational and should not be used for support decisions.

Regional Weather Roundup (RWR)

Issued by Gray - Portland, ME (GYX)

                            
000
ASUS41 KGYX 240810
RWRGYX
WEATHER ROUNDUP FOR MAINE AND NEW HAMPSHIRE
NATIONAL WEATHER SERVICE GRAY ME
400 AM EDT WED APR 24 2019

MEZ002-005-006-010-012-015-018-020-021-024-026-027-029-240900-
MAINE
  
CITY           SKY/WX    TMP DP  RH WIND       PRES   REMARKS
PORTLAND       LGT RAIN  43  40  89 SE5       29.76S                  
SANFORD        LGT RAIN  41  41 100 SE5       29.75S                  
BAR HARBOR     CLOUDY    37  36  96 CALM      29.79F                  
WISCASSET      LGT RAIN  41  40  96 E3        29.77F                  
ROCKLAND       LGT RAIN  39  39 100 NE6       29.77F                  
FRYEBURG       LGT RAIN  41  40  96 SE3       29.75S FOG              
LEWISTONAUBURN LGT RAIN  40  40 100 E3        29.75F FOG              
AUGUSTA        LGT RAIN  39  38  96 E5        29.76F                  
WATERVILLE     LGT RAIN  38  38 100 CALM      29.74F                  
BANGOR         FOG       38  36  92 NE5       29.77F VSB 1/2          
GREENVILLE       N/A     33  32  96 SE6       29.69F                  
MILLINOCKET    CLOUDY    35  33  92 NE3       29.78F FOG              
HOULTON        CLOUDY    33  33 100 N7        29.76S FOG              
PRESQUE ISLE   CLOUDY    34  30  85 NE7       29.79F                  
FRENCHVILLE    CLOUDY    34  28  79 NE5       29.77F                  
CARIBOU        CLOUDY    34  29  82 NE9       29.77F                  
$$

NHZ002-005-008-009-011-012-014-240900-
NEW HAMPSHIRE
  
CITY           SKY/WX    TMP DP  RH WIND       PRES   REMARKS
PORTSMOUTH     CLOUDY    43  42  97 E8        29.73R                  
ROCHESTER      CLOUDY    42  42 100 SE5       29.74R FOG              
NASHUA         CLOUDY    45  45 100 E5        29.72F FOG              
MANCHESTER     FOG       45  44  97 E5        29.70F VSB 3/4          
CONCORD        CLOUDY    42  41  96 E5        29.72F FOG              
LACONIA        CLOUDY    42  41  96 E7        29.73S                  
PLYMOUTH       CLOUDY    43  41  93 CALM      29.71F                  
BERLIN         CLOUDY    43  40  89 SE5       29.65F                  
WHITEFIELD     CLOUDY    46  42  86 E5        29.62F                  
JAFFREY        CLOUDY    48  46  93 CALM      29.68F                  
KEENE          CLOUDY    52  51  97 SE5       29.67F                  
LEBANON        LGT RAIN  49  44  83 NE9       29.64S                  
MT WASHINGTON  LGT RAIN  37  37 100 W53         N/A  VSB 0            
$$

VTZ005-007-008-240900-
VERMONT
  
CITY           SKY/WX    TMP DP  RH WIND       PRES   REMARKS
ST JOHNSBURY     N/A     47  46  97 MISG      29.61S                  
MONTPELIER     CLOUDY    52  49  89 S16       29.63F                  
BURLINGTON     CLOUDY    57  49  74 SW15G21   29.59R                  
$$

MAZ007-012-024-CTZ003-RIZ002-NYZ038-NYZ072-240900-
SOUTHERN NEW ENGLAND AND NY
  
CITY           SKY/WX    TMP DP  RH WIND       PRES   REMARKS
BOSTON         LGT RAIN  50  48  93 S9        29.71F                  
WORCESTER      CLOUDY    48  48 100 S10       29.68F FOG              
NANTUCKET      CLOUDY    45  44  97 SE14      29.79F                  
PROVIDENCE     CLOUDY    49  49 100 S8        29.73F                  
HARTFORD       MOCLDY    54  52  93 S7        29.67F                  
ALBANY         CLOUDY    56  46  69 W20G28    29.70R                  
NEW YORK CITY  FAIR      64  51  62 SW8       29.67F                  
$$

ANZ081-ANZ082-ANZ150-NHZ014-MEZ023>029-240900-
COASTAL MARINE OBSERVATIONS
  
STATION/POSITION TIME  TEMP    WIND        PRES    WAVE
                       AIR SEA DIR/SP/G            HT/PER
                 (UTC) (F)     (DEG/KT/KT) (MB)    (FT/S)
ISLE OF SHOALS   0700   42     130/ 15/ 16 1006.8F
$$

.............KEY..............
   WCI - WIND CHILL
   TC  - TEMPERATURE IN CELSIUS
   VSB - VISIBILITY IN MILES
   HX  - HEAT INDEX
   FAIR- INDICATES FEW OR NO CLOUDS BELOW 12,000 FT, WITH NO 
         SIGNIFICANT WEATHER AND/OR OBSTRUCTIONS TO VISIBILITY.